Flag for Germany Weather past 2 weeks in Leutkirch im Allgäu, Baden-Württemberg, Germany

Now
31 °F

Fog.


Feels Like: 31 °F
Forecast: 17 / 40 °F
Wind: 1 mph from East

Location: Kempten

Current Time: Feb 28, 2015 at 9:19:08 PM

Latest Report: Feb 28, 2015 at 9:00 PM


Visibility: 3 mi

Pressure: 30.14 "Hg

Humidity: 95%

Dew point: 30 °F

Location of Leutkirch im AllgäuLocation

Historic Weather in Leutkirch im Allgäu — Graph

°F

Leutkirch im Allgäu temperature yesterday

Maximum temperature yesterday: 34 °F (at 5:00 PM)
Minimum temperature yesterday: 17 °F (at 5:00 AM)
Average temperature yesterday: 27 °F

Past Weeks' High & Low Weather Summary

 TemperatureHumidityPressure
High52 °F (Feb 20, 1:00 PM)99% (Feb 28, 7:00 AM)30.77 "Hg (Feb 28, 7:00 AM)
Low11 °F (Feb 16, 6:00 AM)26% (Feb 20, 1:00 PM)29.50 "Hg (Feb 21, 1:00 PM)
Average30 °F80%30.09 "Hg
* Reported Feb 13 8:00 PM — Feb 28 8:00 PM, Leutkirch im Allgäu, Weather by CustomWeather, © 2015

Note: Actual official high and low records may vary slightly from our data, if they occured in-between our weather recording intervals... More about our weather records

Advertising

Leutkirch im Allgäu weather history for previous 24 hours

 ConditionsComfort  
Time TempWeatherWind HumidityBarometerVisibility
8:00 PM
Sat, Feb 28
31 °FFog.1 mph93%30.14 "Hg3 mi
7:00 PM32 °FFog.1 mph91%30.14 "Hg4 mi
6:00 PM35 °FSunny.1 mph84%30.11 "Hg7 mi
5:00 PM37 °FOvercast.1 mph74%30.11 "Hg11 mi
4:00 PM37 °FOvercast.1 mph72%30.12 "Hg13 mi
3:00 PM37 °FOvercast.2 mph73%30.12 "Hg9 mi
2:00 PM38 °FSunny.2 mph65%30.13 "Hg8 mi
1:00 PM37 °FSunny.2 mph69%30.16 "Hg5 mi
12:00 PM37 °FSunny.2 mph66%30.19 "Hg7 mi
11:00 AM35 °FOvercast.2 mph77%30.21 "Hg7 mi
10:00 AM35 °FLow clouds.No wind79%30.22 "Hg7 mi
9:00 AM33 °FLow clouds.No wind91%30.22 "Hg2 mi
8:00 AM32 °FFog.1 mph96%30.22 "Hg2 mi
7:00 AM32 °FOvercast.1 mph99%30.21 "Hg1 mi
6:00 AM32 °FOvercast.No wind98%30.19 "Hg2 mi
5:00 AM32 °FLight snow. Overcast.No wind98%30.19 "Hg1 mi
3:00 AM32 °FLight snow. Low clouds.No wind96%30.19 "Hg2 mi
2:00 AM32 °FLight snow. Overcast.2 mph96%30.19 "Hg3 mi
1:00 AM33 °FLight snow. Overcast.2 mph97%30.19 "Hg2 mi
12:00 AM33 °FLight snow. Overcast.1 mph97%30.18 "Hg2 mi
11:00 PM
Fri, Feb 27
33 °FLight snow. Overcast.2 mph96%30.17 "Hg3 mi
9:00 PM33 °FLight snow. Dense fog.3 mph94%30.12 "Hg2 mi
Weather by CustomWeather, © 2015

See weather overviewHow to use our weather pages